STW098 URMM-LTAI

Flight info

Callsign STW098
Flight time N/A
Altitude 36000
Route N0450F360 ABELA B967 ERSAR G487 ODIRA UW96 SIN UT61 BAG UP29 HALIL W77 HISAR
Aircraft B38M/M-VGDW/C

Departure

Time 2026-05-01 12:35
Airport Mineralnye Vody Airport (URMM)

Arrival

Time N/A
Airport Antalya International Airport (LTAI)
Time Latitude Longitude Altitude Speed Heading
2026-05-01 12:17 44.21870 43.08805 1053 ft 0 kts 212°
2026-05-01 12:25 44.21872 43.08806 1053 ft 1 kts 212°
2026-05-01 12:25 44.21887 43.08820 1053 ft 3 kts 221°
2026-05-01 12:26 44.21900 43.08841 1053 ft 3 kts 238°
2026-05-01 12:26 44.21905 43.08890 1053 ft 2 kts 297°
2026-05-01 12:26 44.21903 43.08896 1053 ft 1 kts 302°
2026-05-01 12:30 44.21919 43.08832 1053 ft 4 kts 234°
2026-05-01 12:30 44.21903 43.08833 1053 ft 5 kts 134°
2026-05-01 12:30 44.21875 43.08946 1053 ft 19 kts 113°
2026-05-01 12:31 44.21931 43.09112 1053 ft 24 kts 17°
2026-05-01 12:31 44.22087 43.09039 1054 ft 25 kts 333°
2026-05-01 12:31 44.22263 43.08913 1055 ft 32 kts 332°
2026-05-01 12:31 44.22458 43.08739 1057 ft 33 kts 316°
2026-05-01 12:32 44.22599 43.08474 1056 ft 35 kts 302°
2026-05-01 12:32 44.22922 43.07762 1053 ft 51 kts 302°
2026-05-01 12:32 44.23115 43.07331 1051 ft 53 kts 302°
2026-05-01 12:33 44.23317 43.06883 1049 ft 56 kts 302°
2026-05-01 12:33 44.23502 43.06454 1052 ft 40 kts 296°
2026-05-01 12:33 44.23583 43.06268 1053 ft 5 kts 338°
2026-05-01 12:33 44.23597 43.06277 1053 ft 11 kts 47°
2026-05-01 12:34 44.23588 43.06314 1054 ft 10 kts 124°
2026-05-01 12:34 44.23543 43.06416 1053 ft 18 kts 122°
2026-05-01 12:34 44.23343 43.06847 1049 ft 86 kts 122°
2026-05-01 12:34 44.22917 43.07782 1053 ft 140 kts 122°
2026-05-01 12:35 44.22340 43.09076 1258 ft 164 kts 121°
2026-05-01 12:35 44.21709 43.10462 1748 ft 176 kts 121°
2026-05-01 12:35 44.21130 43.11927 2583 ft 165 kts 101°
2026-05-01 12:35 44.21277 43.13526 3016 ft 182 kts 59°
2026-05-01 12:36 44.22335 43.14667 3362 ft 213 kts 20°
2026-05-01 12:36 44.23910 43.14586 3673 ft 248 kts 340°
2026-05-01 12:36 44.25302 43.13017 4169 ft 273 kts 304°
2026-05-01 12:36 44.25885 43.10474 4932 ft 279 kts 271°
2026-05-01 12:37 44.25850 43.07753 5745 ft 284 kts 269°
2026-05-01 12:37 44.25922 43.04995 6601 ft 285 kts 272°
2026-05-01 12:37 44.26082 43.02219 7416 ft 288 kts 273°
2026-05-01 12:37 44.26181 42.99495 8359 ft 282 kts 261°
2026-05-01 12:38 44.25669 42.96917 9357 ft 273 kts 245°
2026-05-01 12:38 44.24906 42.94491 10221 ft 275 kts 247°
2026-05-01 12:38 44.24414 42.91827 10605 ft 294 kts 256°
2026-05-01 12:38 44.23980 42.88960 10987 ft 310 kts 255°
2026-05-01 12:39 44.23507 42.85985 11611 ft 316 kts 255°
2026-05-01 12:39 44.23019 42.82996 12425 ft 317 kts 255°
2026-05-01 12:39 44.22521 42.79994 13278 ft 318 kts 254°
2026-05-01 12:39 44.22014 42.76977 14075 ft 321 kts 254°
2026-05-01 12:40 44.21503 42.73946 14848 ft 322 kts 253°
2026-05-01 12:40 44.20988 42.70901 15653 ft 323 kts 253°
2026-05-01 12:40 44.20469 42.67841 16433 ft 325 kts 253°
2026-05-01 12:40 44.19945 42.64759 17206 ft 327 kts 253°
2026-05-01 12:41 44.19419 42.61667 17965 ft 328 kts 253°
2026-05-01 12:41 44.19073 42.58510 18618 ft 334 kts 264°
2026-05-01 12:41 44.18934 42.55271 19222 ft 336 kts 262°
2026-05-01 12:41 44.18756 42.52003 19786 ft 339 kts 262°
2026-05-01 12:42 44.18565 42.48714 20361 ft 342 kts 262°
2026-05-01 12:42 44.18363 42.45396 20938 ft 345 kts 262°
2026-05-01 12:42 44.18155 42.42059 21526 ft 348 kts 262°
2026-05-01 12:42 44.17942 42.38688 22072 ft 351 kts 262°
2026-05-01 12:43 44.17728 42.35325 22599 ft 355 kts 262°
2026-05-01 12:43 44.17508 42.31886 23175 ft 357 kts 262°
2026-05-01 12:43 44.17285 42.28429 23682 ft 360 kts 262°
2026-05-01 12:43 44.17059 42.24942 24135 ft 363 kts 262°
2026-05-01 12:44 44.16831 42.21437 24593 ft 365 kts 262°
2026-05-01 12:44 44.16601 42.17905 25033 ft 367 kts 262°
2026-05-01 12:44 44.16132 42.10776 25891 ft 372 kts 262°
2026-05-01 12:45 44.15652 42.03555 26725 ft 377 kts 262°
2026-05-01 12:45 44.15408 41.99908 27133 ft 379 kts 261°
2026-05-01 12:45 44.15162 41.96238 27529 ft 382 kts 262°
2026-05-01 12:46 44.14912 41.92549 27928 ft 384 kts 262°
2026-05-01 12:46 44.14660 41.88826 28297 ft 387 kts 261°
2026-05-01 12:46 44.14403 41.85075 28630 ft 391 kts 261°
2026-05-01 12:46 44.14145 41.81301 29018 ft 393 kts 261°
2026-05-01 12:47 44.13883 41.77505 29412 ft 395 kts 261°
2026-05-01 12:47 44.13620 41.73699 29874 ft 395 kts 261°
2026-05-01 12:47 44.13358 41.69931 30194 ft 397 kts 261°
2026-05-01 12:47 44.13090 41.66093 30497 ft 399 kts 261°
2026-05-01 12:48 44.12819 41.62243 30814 ft 400 kts 261°
2026-05-01 12:48 44.12547 41.58383 31119 ft 402 kts 261°
2026-05-01 12:48 44.12273 41.54502 31420 ft 403 kts 261°
2026-05-01 12:48 44.11996 41.50612 31737 ft 404 kts 261°
2026-05-01 12:49 44.11389 41.46833 32143 ft 397 kts 246°
2026-05-01 12:49 44.10324 41.43303 32606 ft 395 kts 246°
2026-05-01 12:49 44.09289 41.39757 32947 ft 395 kts 246°
2026-05-01 12:49 44.08239 41.36233 33370 ft 394 kts 246°
2026-05-01 12:50 44.07182 41.32732 33785 ft 392 kts 246°
2026-05-01 12:50 44.06124 41.29251 34154 ft 390 kts 246°
2026-05-01 12:50 44.05064 41.25780 34447 ft 390 kts 246°
2026-05-01 12:50 44.04001 41.22307 34710 ft 391 kts 246°
2026-05-01 12:51 44.02935 41.18829 34971 ft 391 kts 245°
2026-05-01 12:51 44.01867 41.15346 35208 ft 392 kts 246°
2026-05-01 12:51 43.99736 41.08418 35698 ft 394 kts 246°
2026-05-01 12:52 43.98656 41.04915 35896 ft 395 kts 246°
2026-05-01 12:52 43.95406 40.94394 35970 ft 393 kts 245°
2026-05-01 12:53 43.92168 40.83957 35948 ft 393 kts 245°
2026-05-01 12:54 43.90002 40.76999 35964 ft 393 kts 245°
2026-05-01 12:54 43.86732 40.66619 35948 ft 391 kts 245°
2026-05-01 12:55 43.83452 40.56319 35954 ft 391 kts 245°
2026-05-01 12:56 43.81252 40.49429 35963 ft 391 kts 245°
2026-05-01 12:56 43.79047 40.42544 35931 ft 389 kts 244°
2026-05-01 12:57 43.76849 40.35695 35932 ft 390 kts 244°
2026-05-01 12:57 43.73538 40.25419 35947 ft 389 kts 244°
2026-05-01 12:58 43.71330 40.18585 35930 ft 388 kts 244°
2026-05-01 12:59 43.68005 40.08327 35945 ft 390 kts 244°
2026-05-01 12:59 43.64678 39.98104 35938 ft 391 kts 244°
2026-05-01 13:00 43.61330 39.87857 35936 ft 388 kts 244°
2026-05-01 13:01 43.57992 39.77673 35931 ft 389 kts 244°
2026-05-01 13:02 43.54633 39.67500 35938 ft 388 kts 244°
2026-05-01 13:07 43.30441 38.92525 35975 ft 393 kts 246°
2026-05-01 13:08 43.28466 38.85585 35971 ft 391 kts 246°
2026-05-01 13:08 43.26477 38.78622 35982 ft 392 kts 246°
2026-05-01 13:09 43.24472 38.71646 35984 ft 392 kts 246°
2026-05-01 13:09 43.22468 38.64687 35983 ft 392 kts 246°
2026-05-01 13:10 43.20457 38.57725 35985 ft 392 kts 246°
2026-05-01 13:10 43.18456 38.50820 35978 ft 392 kts 246°
2026-05-01 13:11 43.16435 38.43859 35990 ft 393 kts 246°
2026-05-01 13:11 43.14408 38.36898 35991 ft 393 kts 246°
2026-05-01 13:12 43.12376 38.29942 35989 ft 393 kts 246°
2026-05-01 13:12 43.10344 38.23000 35995 ft 393 kts 246°
2026-05-01 13:13 43.08315 38.16054 36003 ft 394 kts 246°
2026-05-01 13:13 43.06292 38.09087 36001 ft 394 kts 246°
2026-05-01 13:14 43.04266 38.02127 36007 ft 394 kts 246°
2026-05-01 13:14 43.02227 37.95180 36006 ft 394 kts 246°
2026-05-01 13:15 43.00181 37.88243 36017 ft 394 kts 246°
2026-05-01 13:15 42.98478 37.82479 36012 ft 394 kts 245°
2026-05-01 13:16 42.96068 37.74405 36021 ft 395 kts 245°
2026-05-01 13:16 42.94328 37.68587 36020 ft 394 kts 245°
2026-05-01 13:17 42.90180 37.54772 36022 ft 394 kts 245°
2026-05-01 13:18 42.87045 37.44380 36029 ft 395 kts 245°
2026-05-01 13:18 42.84949 37.37454 36029 ft 395 kts 245°
2026-05-01 13:19 42.82847 37.30528 36029 ft 395 kts 245°
2026-05-01 13:20 42.79706 37.20212 36048 ft 394 kts 245°
2026-05-01 13:20 42.77600 37.13319 36038 ft 394 kts 245°
2026-05-01 13:21 42.74430 37.02977 36041 ft 394 kts 245°
2026-05-01 13:21 42.72311 36.96083 36041 ft 394 kts 245°
2026-05-01 13:22 42.70045 36.89305 36068 ft 393 kts 241°
2026-05-01 13:22 42.67606 36.82635 36041 ft 394 kts 242°
2026-05-01 13:23 42.65200 36.76008 36044 ft 394 kts 242°
2026-05-01 13:23 42.62776 36.69337 36043 ft 394 kts 242°
2026-05-01 13:24 42.60345 36.62660 36044 ft 394 kts 242°
2026-05-01 13:25 42.56696 36.52670 36061 ft 394 kts 242°
2026-05-01 13:25 42.54258 36.46015 36062 ft 394 kts 242°
2026-05-01 13:26 42.51833 36.39410 36054 ft 394 kts 242°
2026-05-01 13:26 42.49388 36.32764 36076 ft 394 kts 241°
2026-05-01 13:27 42.46940 36.26129 36059 ft 393 kts 241°
2026-05-01 13:27 42.43265 36.16198 36067 ft 393 kts 241°
2026-05-01 13:28 42.39599 36.06322 36070 ft 393 kts 241°
2026-05-01 13:29 42.34666 35.93090 36072 ft 394 kts 241°
2026-05-01 13:31 42.27238 35.73279 36081 ft 394 kts 241°
2026-05-01 13:32 42.21034 35.56838 36089 ft 394 kts 240°
2026-05-01 13:33 42.14794 35.40380 36080 ft 394 kts 240°
2026-05-01 13:34 42.09797 35.27231 36096 ft 394 kts 241°
2026-05-01 13:35 42.06061 35.17433 36096 ft 394 kts 241°
2026-05-01 13:36 42.02102 35.07774 36079 ft 392 kts 228°
2026-05-01 13:36 41.96126 35.00241 36101 ft 393 kts 223°
2026-05-01 13:37 41.92062 34.95318 36100 ft 394 kts 223°
2026-05-01 13:37 41.87983 34.90426 36087 ft 393 kts 223°
2026-05-01 13:38 41.81849 34.83096 36082 ft 393 kts 223°
2026-05-01 13:39 41.77759 34.78220 36106 ft 394 kts 223°
2026-05-01 13:39 41.73658 34.73341 36087 ft 394 kts 223°
2026-05-01 13:40 41.69553 34.68465 36068 ft 394 kts 222°
2026-05-01 13:40 41.65441 34.63587 36077 ft 395 kts 223°
2026-05-01 13:41 41.61324 34.58716 36048 ft 395 kts 223°
2026-05-01 13:41 41.57235 34.53877 36067 ft 396 kts 223°
2026-05-01 13:42 41.53132 34.48993 36053 ft 394 kts 223°
2026-05-01 13:42 41.49028 34.44120 36046 ft 395 kts 223°
2026-05-01 13:43 41.44921 34.39251 36030 ft 395 kts 223°
2026-05-01 13:43 41.40832 34.34412 36039 ft 395 kts 223°
2026-05-01 13:44 41.36688 34.29517 36041 ft 396 kts 223°
2026-05-01 13:44 41.32591 34.24687 36029 ft 395 kts 222°
2026-05-01 13:45 41.28458 34.19840 36033 ft 397 kts 222°
2026-05-01 13:45 41.24315 34.14987 36018 ft 397 kts 222°
2026-05-01 13:46 41.20168 34.10138 36028 ft 397 kts 222°
2026-05-01 13:46 41.16021 34.05297 36022 ft 397 kts 222°
2026-05-01 13:47 41.11868 34.00458 36018 ft 397 kts 222°
2026-05-01 13:47 41.07712 33.95624 36016 ft 397 kts 222°
2026-05-01 13:48 41.03555 33.90797 35982 ft 397 kts 222°
2026-05-01 13:48 40.99390 33.85969 36008 ft 398 kts 222°
2026-05-01 13:49 40.95222 33.81147 36000 ft 398 kts 222°
2026-05-01 13:49 40.91048 33.76325 36006 ft 399 kts 222°
2026-05-01 13:50 40.86900 33.71543 35998 ft 398 kts 222°
2026-05-01 13:50 40.82722 33.66733 35990 ft 398 kts 222°
2026-05-01 13:51 40.78539 33.61927 36001 ft 398 kts 222°
2026-05-01 13:51 40.74355 33.57127 35990 ft 399 kts 222°
2026-05-01 13:52 40.70154 33.52318 36008 ft 400 kts 222°
2026-05-01 13:52 40.65946 33.47507 36015 ft 400 kts 222°
2026-05-01 13:53 40.61770 33.42742 36014 ft 400 kts 222°
2026-05-01 13:53 40.55444 33.35538 36032 ft 402 kts 222°
2026-05-01 13:54 40.51220 33.30739 36004 ft 401 kts 222°
2026-05-01 13:54 40.46993 33.25945 36007 ft 401 kts 223°
2026-05-01 13:55 40.42758 33.21150 36006 ft 402 kts 222°
2026-05-01 13:55 40.38518 33.16357 36001 ft 402 kts 222°
2026-05-01 13:56 40.34278 33.11573 36016 ft 403 kts 222°
2026-05-01 13:56 40.30029 33.06787 36000 ft 402 kts 223°
2026-05-01 13:57 40.26496 33.02813 36000 ft 402 kts 222°
2026-05-01 13:57 40.21557 32.97268 35993 ft 402 kts 222°
2026-05-01 13:58 40.17306 32.92504 35983 ft 403 kts 223°
2026-05-01 13:58 40.13043 32.87732 35991 ft 403 kts 223°
2026-05-01 13:59 40.08772 32.82960 35998 ft 403 kts 223°
2026-05-01 13:59 40.06541 32.80730 35995 ft 406 kts 212°
2026-05-01 13:59 40.04023 32.79049 36004 ft 408 kts 211°
2026-05-01 14:00 39.98985 32.75611 36010 ft 409 kts 211°
2026-05-01 14:00 39.93919 32.72206 36020 ft 409 kts 211°
2026-05-01 14:01 39.88850 32.68813 36021 ft 410 kts 211°
2026-05-01 14:01 39.83781 32.65425 36016 ft 410 kts 211°
2026-05-01 14:02 39.78739 32.62061 36017 ft 410 kts 211°
2026-05-01 14:02 39.73675 32.58688 35992 ft 408 kts 211°
2026-05-01 14:03 39.68604 32.55316 36011 ft 410 kts 211°
2026-05-01 14:03 39.63523 32.51942 36012 ft 410 kts 211°
2026-05-01 14:04 39.59263 32.49119 36025 ft 410 kts 211°
2026-05-01 14:04 39.54174 32.45751 36020 ft 412 kts 211°
2026-05-01 14:05 39.49098 32.42397 36012 ft 412 kts 211°
2026-05-01 14:05 39.43992 32.39028 36017 ft 412 kts 211°
2026-05-01 14:06 39.38880 32.35666 36009 ft 413 kts 211°
2026-05-01 14:06 39.33747 32.32317 36012 ft 413 kts 211°
2026-05-01 14:07 39.28629 32.28980 36011 ft 412 kts 211°
2026-05-01 14:08 39.20957 32.23988 36003 ft 414 kts 212°
2026-05-01 14:08 39.15805 32.20643 35997 ft 414 kts 212°
2026-05-01 14:09 39.10658 32.17307 36006 ft 414 kts 212°
2026-05-01 14:09 39.05538 32.13993 36006 ft 415 kts 212°
2026-05-01 14:10 39.00372 32.10655 35997 ft 415 kts 212°
2026-05-01 14:10 38.95204 32.07322 36037 ft 416 kts 212°
2026-05-01 14:11 38.90049 32.04002 36000 ft 413 kts 212°
2026-05-01 14:11 38.82318 31.99034 35996 ft 414 kts 212°
2026-05-01 14:12 38.77158 31.95724 36000 ft 414 kts 212°
2026-05-01 14:12 38.72044 31.92450 35837 ft 400 kts 213°
2026-05-01 14:13 38.69586 31.90878 35680 ft 388 kts 213°
2026-05-01 14:13 38.67189 31.89346 35313 ft 383 kts 213°
2026-05-01 14:13 38.64811 31.87827 34837 ft 381 kts 213°
2026-05-01 14:13 38.62442 31.86315 34330 ft 380 kts 213°
2026-05-01 14:14 38.60079 31.84809 33776 ft 379 kts 213°
2026-05-01 14:14 38.57720 31.83306 33237 ft 377 kts 213°
2026-05-01 14:14 38.55383 31.81819 32765 ft 374 kts 213°
2026-05-01 14:14 38.53070 31.80346 32317 ft 370 kts 212°
2026-05-01 14:15 38.50774 31.78887 31923 ft 366 kts 213°
2026-05-01 14:15 38.48529 31.77460 31471 ft 364 kts 213°
2026-05-01 14:15 38.46256 31.76018 30974 ft 363 kts 212°
2026-05-01 14:15 38.44005 31.74589 30556 ft 361 kts 212°
2026-05-01 14:16 38.41763 31.73168 30107 ft 358 kts 212°
2026-05-01 14:16 38.39536 31.71756 29650 ft 356 kts 212°
2026-05-01 14:16 38.37328 31.70359 29221 ft 353 kts 212°
2026-05-01 14:16 38.35140 31.68974 28812 ft 349 kts 212°
2026-05-01 14:17 38.32970 31.67602 28419 ft 346 kts 212°
2026-05-01 14:17 38.30827 31.66248 28033 ft 342 kts 212°
2026-05-01 14:17 38.28708 31.64910 27655 ft 338 kts 212°
2026-05-01 14:17 38.26607 31.63584 27281 ft 335 kts 212°
2026-05-01 14:18 38.24526 31.62272 26925 ft 332 kts 212°
2026-05-01 14:18 38.22465 31.60972 26554 ft 329 kts 212°
2026-05-01 14:18 38.20421 31.59685 26204 ft 326 kts 212°
2026-05-01 14:18 38.19082 31.58841 25972 ft 324 kts 212°
2026-05-01 14:19 38.16419 31.57165 25511 ft 320 kts 212°
2026-05-01 14:19 38.14422 31.55909 25173 ft 323 kts 212°
2026-05-01 14:19 38.12378 31.54674 24924 ft 329 kts 206°
2026-05-01 14:19 38.10097 31.54119 24772 ft 340 kts 189°
2026-05-01 14:20 38.07722 31.53943 24711 ft 343 kts 191°
2026-05-01 14:20 38.02936 31.53580 24492 ft 344 kts 190°
2026-05-01 14:20 38.00549 31.53419 24352 ft 343 kts 190°
2026-05-01 14:21 37.98170 31.53264 24209 ft 342 kts 189°
2026-05-01 14:21 37.95787 31.53111 24055 ft 341 kts 189°
2026-05-01 14:21 37.93420 31.52961 23905 ft 340 kts 189°
2026-05-01 14:22 37.88705 31.52662 23609 ft 339 kts 189°
2026-05-01 14:22 37.86351 31.52513 23470 ft 338 kts 189°
2026-05-01 14:22 37.84002 31.52365 23308 ft 337 kts 189°
2026-05-01 14:22 37.81659 31.52218 23157 ft 337 kts 189°
2026-05-01 14:23 37.79323 31.52070 23031 ft 335 kts 189°
2026-05-01 14:23 37.77007 31.51870 22865 ft 331 kts 194°
2026-05-01 14:23 37.74751 31.51531 22715 ft 331 kts 193°
2026-05-01 14:23 37.72460 31.51203 22584 ft 331 kts 193°
2026-05-01 14:24 37.70177 31.50882 22429 ft 330 kts 193°
2026-05-01 14:24 37.67890 31.50564 22294 ft 331 kts 193°
2026-05-01 14:24 37.65603 31.50248 22165 ft 331 kts 193°
2026-05-01 14:24 37.63315 31.49933 22027 ft 330 kts 193°
2026-05-01 14:25 37.61036 31.49619 21898 ft 330 kts 193°
2026-05-01 14:25 37.58751 31.49304 21742 ft 329 kts 192°
2026-05-01 14:25 37.56480 31.48991 21602 ft 328 kts 192°
2026-05-01 14:25 37.54212 31.48679 21468 ft 328 kts 192°
2026-05-01 14:26 37.51944 31.48368 21336 ft 327 kts 192°
2026-05-01 14:26 37.47427 31.47747 21045 ft 327 kts 192°
2026-05-01 14:26 37.45168 31.47438 20932 ft 326 kts 192°
2026-05-01 14:27 37.42912 31.47124 20762 ft 326 kts 192°
2026-05-01 14:27 37.40688 31.46814 20623 ft 325 kts 192°
2026-05-01 14:27 37.38446 31.46503 20501 ft 324 kts 192°
2026-05-01 14:28 37.33962 31.45879 20253 ft 323 kts 192°
2026-05-01 14:28 37.31728 31.45569 20116 ft 323 kts 192°
2026-05-01 14:28 37.29492 31.45258 19949 ft 322 kts 192°
2026-05-01 14:28 37.27261 31.44949 19823 ft 322 kts 192°
2026-05-01 14:29 37.25035 31.44640 19701 ft 323 kts 192°
2026-05-01 14:29 37.22804 31.44331 19566 ft 321 kts 192°
2026-05-01 14:30 37.16211 31.43218 19130 ft 311 kts 205°
2026-05-01 14:30 37.14422 31.41927 19009 ft 294 kts 225°
2026-05-01 14:30 37.13170 31.40015 18899 ft 277 kts 243°
2026-05-01 14:31 37.12338 31.35502 18674 ft 260 kts 267°
2026-05-01 14:31 37.12336 31.33240 18563 ft 260 kts 269°
2026-05-01 14:31 37.12404 31.30998 18433 ft 260 kts 271°
2026-05-01 14:31 37.12522 31.28732 18343 ft 261 kts 272°
2026-05-01 14:32 37.12779 31.26483 18237 ft 263 kts 285°
2026-05-01 14:32 37.13701 31.24492 18080 ft 270 kts 308°
2026-05-01 14:32 37.15259 31.23119 17959 ft 282 kts 331°
2026-05-01 14:32 37.17211 31.22621 17853 ft 295 kts 355°
2026-05-01 14:33 37.19276 31.22872 17720 ft 300 kts 359°
2026-05-01 14:33 37.21352 31.23136 17585 ft 299 kts 359°
2026-05-01 14:33 37.23424 31.23411 17442 ft 299 kts 360°
2026-05-01 14:33 37.25494 31.23695 17313 ft 299 kts 360°
2026-05-01 14:34 37.27555 31.23982 17192 ft 298 kts 360°
2026-05-01 14:34 37.29614 31.24268 17064 ft 297 kts
2026-05-01 14:34 37.31664 31.24554 16927 ft 297 kts
2026-05-01 14:34 37.33721 31.24842 16796 ft 297 kts
2026-05-01 14:35 37.35771 31.25128 16680 ft 296 kts
2026-05-01 14:35 37.37817 31.25413 16565 ft 295 kts
2026-05-01 14:35 37.39863 31.25699 16419 ft 295 kts
2026-05-01 14:35 37.41898 31.25984 16304 ft 294 kts
2026-05-01 14:36 37.43929 31.26268 16170 ft 294 kts
2026-05-01 14:36 37.45958 31.26551 16040 ft 293 kts
2026-05-01 14:36 37.47960 31.26790 15895 ft 289 kts 353°
2026-05-01 14:36 37.49856 31.26297 15763 ft 272 kts 327°
2026-05-01 14:37 37.51360 31.24948 15671 ft 263 kts 308°
2026-05-01 14:37 37.52348 31.23089 15521 ft 251 kts 285°
2026-05-01 14:37 37.52576 31.20958 15403 ft 245 kts 262°
2026-05-01 14:37 37.52088 31.18909 15281 ft 245 kts 242°
2026-05-01 14:38 37.51118 31.17125 15188 ft 248 kts 237°
2026-05-01 14:38 37.49962 31.15513 15049 ft 252 kts 219°
2026-05-01 14:38 37.48352 31.14583 14982 ft 260 kts 198°
2026-05-01 14:38 37.46572 31.14211 14925 ft 264 kts 194°
2026-05-01 14:39 37.44751 31.13883 14775 ft 265 kts 194°
2026-05-01 14:39 37.42928 31.13588 14639 ft 263 kts 193°
2026-05-01 14:39 37.41110 31.13308 14509 ft 263 kts 193°
2026-05-01 14:39 37.39293 31.13039 14378 ft 263 kts 192°
2026-05-01 14:40 37.37474 31.12776 14268 ft 262 kts 192°
2026-05-01 14:40 37.35666 31.12519 14153 ft 261 kts 192°
2026-05-01 14:40 37.33869 31.12265 14054 ft 260 kts 192°
2026-05-01 14:40 37.32070 31.12008 13926 ft 260 kts 192°
2026-05-01 14:41 37.30273 31.11758 13828 ft 260 kts 192°
2026-05-01 14:41 37.28474 31.11507 13682 ft 260 kts 192°
2026-05-01 14:41 37.26677 31.11256 13563 ft 260 kts 192°
2026-05-01 14:41 37.24879 31.11004 13469 ft 260 kts 192°
2026-05-01 14:42 37.23083 31.10757 13357 ft 259 kts 192°
2026-05-01 14:42 37.21310 31.10516 13230 ft 258 kts 192°
2026-05-01 14:42 37.19524 31.10271 13140 ft 259 kts 192°
2026-05-01 14:42 37.17732 31.09988 13081 ft 257 kts 199°
2026-05-01 14:43 37.16167 31.09058 12999 ft 245 kts 225°
2026-05-01 14:43 37.15168 31.07386 12949 ft 241 kts 248°
2026-05-01 14:43 37.14794 31.05344 12875 ft 242 kts 268°
2026-05-01 14:43 37.15033 31.03262 12640 ft 244 kts 289°
2026-05-01 14:44 37.16016 31.01527 12524 ft 251 kts 316°
2026-05-01 14:44 37.19229 30.99582 12350 ft 263 kts 338°
2026-05-01 14:44 37.21031 30.99110 12179 ft 266 kts 349°
2026-05-01 14:45 37.22881 30.98936 12008 ft 267 kts 352°
2026-05-01 14:45 37.26618 30.98944 11784 ft 270 kts 357°
2026-05-01 14:45 37.28495 30.99084 11641 ft 270 kts 359°
2026-05-01 14:46 37.30367 30.99276 11513 ft 270 kts
2026-05-01 14:46 37.33761 30.99691 11297 ft 269 kts